| time (UTC) | temp C | wind direction | speed KPH | gust KPH | rain 1hr cm | rain 24hr cm | rain mn cm | humidity % | barometer mb |
| 20260504212103 | 22 | 276 | 9.7 | 29.0 | 0.00 | 0.05 | 0.00 | 45 | 1001.4 |
| 20260504211602 | 22 | 284 | 20.9 | 33.8 | 0.00 | 0.05 | 0.00 | 44 | 1001.5 |
| 20260504211103 | 22 | 289 | 11.3 | 25.7 | 0.00 | 0.05 | 0.00 | 44 | 1001.5 |
| 20260504210602 | 22 | 281 | 12.9 | 27.4 | 0.00 | 0.05 | 0.00 | 43 | 1001.5 |
| 20260504205603 | 22 | 286 | 12.9 | 24.1 | 0.00 | 0.05 | 0.00 | 44 | 1001.5 |
| 20260504205103 | 22 | 256 | 8.0 | 32.2 | 0.00 | 0.05 | 0.00 | 45 | 1001.7 |
| 20260504204602 | 21 | 268 | 9.7 | 29.0 | 0.00 | 0.05 | 0.00 | 45 | 1001.7 |
| 20260504204102 | 21 | 272 | 16.1 | 41.8 | 0.00 | 0.05 | 0.00 | 46 | 1001.7 |
| 20260504203603 | 22 | 270 | 11.3 | 35.4 | 0.00 | 0.05 | 0.00 | 44 | 1001.8 |
| 20260504203103 | 22 | 280 | 14.5 | 25.7 | 0.00 | 0.05 | 0.00 | 45 | 1001.9 |
| 20260504202602 | 21 | 294 | 11.3 | 35.4 | 0.00 | 0.05 | 0.00 | 46 | 1001.8 |
| 20260504202103 | 22 | 262 | 11.3 | 20.9 | 0.00 | 0.05 | 0.00 | 44 | 1001.9 |
| 20260504201602 | 22 | 290 | 14.5 | 32.2 | 0.00 | 0.05 | 0.00 | 46 | 1001.9 |
| 20260504201103 | 22 | 282 | 12.9 | 29.0 | 0.00 | 0.05 | 0.00 | 44 | 1002.0 |
| 20260504200602 | 22 | 257 | 8.0 | 20.9 | 0.00 | 0.05 | 0.00 | 47 | 1002.0 |
| 20260504195603 | 22 | 270 | 12.9 | 25.7 | 0.00 | 0.05 | 0.00 | 45 | 1002.1 |
| 20260504195102 | 22 | 284 | 9.7 | 20.9 | 0.00 | 0.05 | 0.00 | 47 | 1002.2 |
| 20260504194603 | 22 | 264 | 14.5 | 24.1 | 0.00 | 0.05 | 0.00 | 46 | 1002.3 |
| 20260504194102 | 22 | 270 | 11.3 | 22.5 | 0.00 | 0.05 | 0.00 | 49 | 1002.4 |
| 20260504193603 | 21 | 277 | 14.5 | 29.0 | 0.00 | 0.05 | 0.00 | 48 | 1002.4 |
| 20260504193103 | 21 | 280 | 9.7 | 25.7 | 0.00 | 0.05 | 0.00 | 48 | 1002.6 |
| 20260504192603 | 21 | 259 | 16.1 | 37.0 | 0.00 | 0.05 | 0.00 | 48 | 1002.7 |
| 20260504191103 | 21 | 278 | 9.7 | 29.0 | 0.00 | 0.05 | 0.00 | 52 | 1002.9 |
| 20260504190602 | 21 | 281 | 9.7 | 22.5 | 0.00 | 0.05 | 0.00 | 51 | 1003.0 |
| 20260504185603 | 21 | 276 | 12.9 | 25.7 | 0.00 | 0.05 | 0.00 | 53 | 1003.1 |
| 20260504185103 | 21 | 254 | 11.3 | 35.4 | 0.00 | 0.05 | 0.00 | 54 | 1003.2 |
| 20260504184602 | 21 | 252 | 14.5 | 33.8 | 0.00 | 0.05 | 0.00 | 51 | 1003.2 |
| 20260504184102 | 21 | 284 | 12.9 | 29.0 | 0.00 | 0.05 | 0.00 | 56 | 1003.3 |
| 20260504183602 | 21 | 276 | 16.1 | 32.2 | 0.00 | 0.05 | 0.00 | 53 | 1003.4 |
| 20260504183102 | 20 | 286 | 16.1 | 33.8 | 0.00 | 0.05 | 0.00 | 52 | 1003.3 |
| 20260504182602 | 21 | 268 | 8.0 | 32.2 | 0.00 | 0.05 | 0.00 | 55 | 1003.5 |
| 20260504182103 | 20 | 255 | 11.3 | 22.5 | 0.00 | 0.05 | 0.00 | 55 | 1003.5 |
| 20260504181603 | 20 | 278 | 17.7 | 29.0 | 0.00 | 0.05 | 0.00 | 55 | 1003.6 |
| 20260504181103 | 20 | 282 | 12.9 | 35.4 | 0.00 | 0.05 | 0.00 | 56 | 1003.5 |
| 20260504180103 | 20 | 270 | 14.5 | 27.4 | 0.00 | 0.05 | 0.00 | 55 | 1003.7 |
| 20260504175604 | 20 | 274 | 11.3 | 25.7 | 0.00 | 0.05 | 0.00 | 57 | 1003.8 |
| 20260504174603 | 18 | 270 | 12.9 | 32.2 | 0.00 | 0.05 | 0.00 | 56 | 1003.9 |
| 20260504174103 | 18 | 285 | 17.7 | 32.2 | 0.00 | 0.05 | 0.00 | 59 | 1004.0 |
| 20260504173602 | 18 | 281 | 14.5 | 32.2 | 0.00 | 0.05 | 0.00 | 57 | 1004.2 |
| 20260504173102 | 18 | 281 | 14.5 | 25.7 | 0.00 | 0.05 | 0.00 | 57 | 1004.1 |
| 20260504172602 | 18 | 254 | 9.7 | 32.2 | 0.00 | 0.05 | 0.00 | 58 | 1004.1 |
| 20260504172102 | 18 | 287 | 19.3 | 37.0 | 0.00 | 0.05 | 0.00 | 57 | 1004.2 |
| 20260504171103 | 18 | 282 | 9.7 | 24.1 | 0.00 | 0.05 | 0.00 | 58 | 1004.2 |
| 20260504170603 | 18 | 250 | 9.7 | 24.1 | 0.00 | 0.05 | 0.00 | 57 | 1004.3 |
| 20260504151103 | 17 | 278 | 14.5 | 27.4 | 0.00 | 0.05 | 0.00 | 60 | 1005.1 |
| 20260504150603 | 16 | 278 | 19.3 | 32.2 | 0.00 | 0.05 | 0.00 | 57 | 1005.1 |
| 20260504150103 | 17 | 291 | 14.5 | 32.2 | 0.00 | 0.05 | 0.00 | 57 | 1005.1 |
| 20260504140603 | 16 | 278 | 11.3 | 22.5 | 0.00 | 0.05 | 0.00 | 58 | 1005.1 |
| 20260504130603 | 14 | 278 | 11.3 | 32.2 | 0.00 | 0.05 | 0.00 | 61 | 1005.5 |
| 20260504130103 | 14 | 265 | 14.5 | 27.4 | 0.00 | 0.05 | 0.00 | 60 | 1005.6 |
| 20260504081102 | 9 | 248 | 8.0 | 22.5 | 0.00 | 0.08 | 0.00 | 72 | 1006.3 |
| 20260504080603 | 9 | 264 | 8.0 | 19.3 | 0.00 | 0.08 | 0.00 | 72 | 1006.4 |
| 20260504050603 | 11 | 265 | 9.7 | 19.3 | 0.00 | 0.08 | 0.00 | 65 | 1007.9 |
| 20260504050103 | 11 | 269 | 6.4 | 25.7 | 0.00 | 0.08 | 0.00 | 63 | 1007.8 |
| 20260504045603 | 11 | 259 | 9.7 | 19.3 | 0.00 | 0.08 | 0.00 | 62 | 1007.9 |
| 20260504044602 | 11 | 270 | 9.7 | 25.7 | 0.00 | 0.08 | 0.00 | 60 | 1007.9 |
| 20260504044103 | 12 | 261 | 9.7 | 20.9 | 0.00 | 0.08 | 0.00 | 60 | 1007.9 |
| 20260504043603 | 12 | 270 | 8.0 | 37.0 | 0.00 | 0.08 | 0.00 | 59 | 1007.9 |
| 20260504043103 | 12 | 262 | 8.0 | 24.1 | 0.00 | 0.08 | 0.00 | 59 | 1007.9 |
| 20260504042603 | 12 | 277 | 8.0 | 20.9 | 0.00 | 0.08 | 0.00 | 59 | 1007.9 |
| 20260504042103 | 12 | 285 | 9.7 | 20.9 | 0.00 | 0.08 | 0.00 | 59 | 1007.9 |
| 20260504041603 | 12 | 273 | 14.5 | 24.1 | 0.00 | 0.08 | 0.00 | 59 | 1007.9 |
| 20260504041102 | 12 | 280 | 11.3 | 27.4 | 0.00 | 0.08 | 0.00 | 59 | 1007.9 |
| 20260504040602 | 12 | 293 | 11.3 | 25.7 | 0.00 | 0.08 | 0.00 | 59 | 1007.9 |
| 20260504035603 | 12 | 289 | 14.5 | 27.4 | 0.00 | 0.08 | 0.08 | 59 | 1008.0 |
| 20260504035103 | 12 | 299 | 9.7 | 27.4 | 0.00 | 0.08 | 0.08 | 59 | 1008.1 |
| 20260504034602 | 12 | 295 | 9.7 | 24.1 | 0.00 | 0.08 | 0.08 | 59 | 1007.9 |
| 20260504034105 | 12 | 286 | 9.7 | 22.5 | 0.00 | 0.08 | 0.08 | 59 | 1007.9 |
| 20260504033603 | 12 | 273 | 11.3 | 24.1 | 0.00 | 0.08 | 0.08 | 58 | 1007.9 |
| 20260504032604 | 12 | 283 | 9.7 | 20.9 | 0.00 | 0.08 | 0.08 | 59 | 1008.0 |
| 20260504031603 | 12 | 270 | 8.0 | 20.9 | 0.00 | 0.08 | 0.08 | 59 | 1008.0 |
| 20260504031103 | 12 | 294 | 14.5 | 33.8 | 0.00 | 0.08 | 0.08 | 59 | 1008.1 |
| 20260504030603 | 12 | 290 | 14.5 | 25.7 | 0.00 | 0.08 | 0.08 | 58 | 1008.1 |
| 20260504025603 | 12 | 287 | 11.3 | 24.1 | 0.00 | 0.08 | 0.08 | 58 | 1008.1 |
| 20260504025103 | 12 | 285 | 11.3 | 25.7 | 0.00 | 0.08 | 0.08 | 58 | 1008.1 |
| 20260504024603 | 12 | 280 | 16.1 | 27.4 | 0.00 | 0.08 | 0.08 | 59 | 1008.1 |
| 20260504023603 | 12 | 282 | 11.3 | 29.0 | 0.00 | 0.08 | 0.08 | 59 | 1008.1 |
| 20260504023102 | 11 | 291 | 14.5 | 24.1 | 0.00 | 0.08 | 0.08 | 60 | 1008.1 |
| 20260504022603 | 11 | 272 | 9.7 | 19.3 | 0.00 | 0.08 | 0.08 | 60 | 1008.2 |
| 20260504022102 | 11 | 284 | 11.3 | 32.2 | 0.00 | 0.08 | 0.08 | 60 | 1008.1 |
| 20260504021603 | 11 | 284 | 9.7 | 25.7 | 0.00 | 0.08 | 0.08 | 60 | 1008.1 |
| 20260504021103 | 11 | 288 | 12.9 | 25.7 | 0.00 | 0.08 | 0.08 | 60 | 1008.1 |
| 20260504020602 | 11 | 276 | 9.7 | 25.7 | 0.00 | 0.08 | 0.08 | 61 | 1008.2 |
| 20260504020103 | 11 | 291 | 17.7 | 38.6 | 0.00 | 0.08 | 0.08 | 61 | 1008.2 |
| 20260504015603 | 11 | 282 | 11.3 | 24.1 | 0.00 | 0.08 | 0.08 | 61 | 1008.3 |
| 20260504015103 | 11 | 267 | 14.5 | 27.4 | 0.00 | 0.08 | 0.08 | 62 | 1008.2 |
| 20260504014603 | 11 | 293 | 14.5 | 27.4 | 0.00 | 0.08 | 0.08 | 61 | 1008.2 |
| 20260504013603 | 11 | 286 | 11.3 | 25.7 | 0.00 | 0.08 | 0.08 | 62 | 1008.1 |
| 20260504013103 | 11 | 279 | 9.7 | 22.5 | 0.00 | 0.08 | 0.08 | 62 | 1008.1 |
| 20260504012602 | 11 | 296 | 16.1 | 37.0 | 0.00 | 0.08 | 0.08 | 62 | 1008.1 |
| 20260504011603 | 11 | 284 | 9.7 | 27.4 | 0.00 | 0.08 | 0.08 | 63 | 1008.2 |
| 20260504011103 | 11 | 276 | 9.7 | 27.4 | 0.00 | 0.08 | 0.08 | 63 | 1008.1 |
| 20260504010603 | 11 | 285 | 12.9 | 29.0 | 0.00 | 0.08 | 0.08 | 63 | 1008.2 |
| 20260504005603 | 11 | 292 | 12.9 | 29.0 | 0.00 | 0.08 | 0.08 | 65 | 1008.2 |
| 20260504005103 | 11 | 277 | 11.3 | 27.4 | 0.00 | 0.08 | 0.08 | 66 | 1008.2 |
| 20260504004603 | 11 | 276 | 12.9 | 32.2 | 0.00 | 0.08 | 0.08 | 66 | 1008.2 |
| 20260504004103 | 11 | 271 | 9.7 | 19.3 | 0.00 | 0.08 | 0.08 | 68 | 1008.2 |
| 20260504003603 | 10 | 286 | 14.5 | 25.7 | 0.00 | 0.08 | 0.08 | 70 | 1008.2 |
| 20260504003103 | 10 | 293 | 9.7 | 22.5 | 0.00 | 0.08 | 0.08 | 72 | 1008.3 |
| 20260504002602 | 10 | 281 | 6.4 | 22.5 | 0.00 | 0.08 | 0.08 | 74 | 1008.3 |
| 20260504001603 | 10 | 284 | 3.2 | 14.5 | 0.03 | 0.08 | 0.08 | 80 | 1008.3 |
| 20260504001102 | 9 | 280 | 6.4 | 16.1 | 0.03 | 0.08 | 0.08 | 81 | 1008.4 |
| 20260504000602 | 9 | 288 | 8.0 | 12.9 | 0.03 | 0.08 | 0.08 | 84 | 1008.3 |
| 20260503235603 | 9 | 267 | 3.2 | 4.8 | 0.03 | 0.08 | 0.08 | 87 | 1008.4 |
| 20260503235102 | 9 | 241 | 1.6 | 4.8 | 0.03 | 0.08 | 0.08 | 87 | 1008.5 |
| 20260503233603 | 10 | 274 | 0.0 | 1.6 | 0.03 | 0.08 | 0.08 | 87 | 1008.9 |
| 20260503233103 | 10 | 274 | 1.6 | 3.2 | 0.05 | 0.08 | 0.08 | 86 | 1008.9 |
| 20260503231603 | 10 | 270 | 1.6 | 3.2 | 0.03 | 0.05 | 0.05 | 85 | 1009.1 |
| 20260503231103 | 10 | 297 | 1.6 | 4.8 | 0.03 | 0.05 | 0.05 | 85 | 1009.1 |
| 20260503230603 | 10 | 328 | 1.6 | 4.8 | 0.03 | 0.05 | 0.05 | 84 | 1009.0 |
| 20260503225603 | 10 | 262 | 3.2 | 4.8 | 0.03 | 0.05 | 0.05 | 82 | 1009.1 |
| 20260503225104 | 10 | 319 | 4.8 | 11.3 | 0.03 | 0.05 | 0.05 | 81 | 1009.0 |
| 20260503224603 | 10 | 342 | 4.8 | 14.5 | 0.03 | 0.05 | 0.05 | 81 | 1009.1 |
| 20260503224103 | 10 | 346 | 4.8 | 12.9 | 0.03 | 0.05 | 0.05 | 79 | 1009.2 |
| 20260503223603 | 11 | 288 | 6.4 | 16.1 | 0.03 | 0.05 | 0.05 | 78 | 1009.3 |
| 20260503223102 | 11 | 304 | 8.0 | 20.9 | 0.00 | 0.03 | 0.03 | 76 | 1009.3 |
| 20260503222603 | 11 | 307 | 9.7 | 22.5 | 0.00 | 0.03 | 0.03 | 74 | 1009.3 |
| 20260503222103 | 11 | 299 | 11.3 | 22.5 | 0.00 | 0.03 | 0.03 | 72 | 1009.3 |
| 20260503221603 | 11 | 337 | 11.3 | 25.7 | 0.00 | 0.03 | 0.03 | 70 | 1009.1 |
| 20260503221103 | 11 | 313 | 8.0 | 19.3 | 0.00 | 0.03 | 0.03 | 69 | 1009.1 |
| 20260503220603 | 11 | 313 | 14.5 | 25.7 | 0.00 | 0.03 | 0.03 | 68 | 1009.0 |
| 20260503215602 | 11 | 296 | 9.7 | 20.9 | 0.00 | 0.03 | 0.03 | 65 | 1008.8 |
| 20260503215102 | 11 | 276 | 8.0 | 19.3 | 0.00 | 0.03 | 0.03 | 65 | 1008.7 |
| 20260503214603 | 11 | 269 | 11.3 | 22.5 | 0.00 | 0.03 | 0.03 | 65 | 1008.6 |
| 20260503214103 | 11 | 293 | 8.0 | 22.5 | 0.00 | 0.03 | 0.03 | 64 | 1008.5 |
| 20260503213603 | 11 | 280 | 9.7 | 22.5 | 0.00 | 0.03 | 0.03 | 64 | 1008.5 |
| 20260503213103 | 11 | 292 | 11.3 | 24.1 | 0.00 | 0.03 | 0.03 | 64 | 1008.4 |
| 20260503212603 | 11 | 276 | 9.7 | 22.5 | 0.00 | 0.03 | 0.03 | 65 | 1008.4 |